Cleveland Burke, OH

8:09 PM EDT on April 29, 2017 (GMT -0400)
Burke Lakefront

Weather History for KBKL - October, 2014

Change the Weather History Date:

Thursday, October 9, 2014

  Actual Average Record
Temperature  
Mean Temperature 52 °F -  
Max Temperature 57 °F 63 °F 80 °F (1997)
Min Temperature 48 °F 49 °F 39 °F (2012)
Degree Days  
Heating Degree Days 12    
Growing Degree Days 2 (Base 50)    
Moisture  
Dew Point 39 °F    
Average Humidity 59    
Maximum Humidity 80    
Minimum Humidity 40    
Precipitation  
Precipitation 0.00 in - - ()
Sea Level Pressure  
Sea Level Pressure 30.05 in    
Wind  
Wind Speed 14 mph (WSW)    
Max Wind Speed 22 mph    
Max Gust Speed 28 mph    
Visibility 10 miles    
Events      
Averages and records for this station are not official NWS values.
T = Trace of Precipitation, MM = Missing Value Source: NWS Daily Summary

Daily Weather History Graph

Daily Weather History Graph

Search for Another Location

Airport or City:

Trip Planner

Search our weather history database for the weather conditions in past years. The results will help you decide how hot, cold, wet, or windy it might be!

Date:

Astronomy

Oct. 09, 2014 Rise Set
Actual Time 7:32 AM EDT 6:55 PM EDT
Civil Twilight 7:04 AM EDT 7:22 PM EDT
Nautical Twilight 6:32 AM EDT 7:54 PM EDT
Astronomical Twilight 6:00 AM EDT 8:27 PM EDT
Moon 7:49 PM EDT (10/9) 8:46 AM EDT (10/9)
Length of Visible Light 12h 18m
Length of Day
11h 23m
Full, 98% of the Moon is Illuminated
Oct 9
Full
Oct 15
Last Quarter
Oct 23
New
Oct 30
First Quarter
Nov 6
Full

Hourly Weather History & Observations

Time (EDT) Temp. Dew Point Humidity Pressure Visibility Wind Dir Wind Speed Gust Speed Precip Events Conditions
12:53 AM 55.0 °F 30.9 °F 40% 30.00 in 10.0 mi SW 17.3 mph - N/A   Clear
1:53 AM 55.0 °F 30.9 °F 40% 29.99 in 10.0 mi SW 20.7 mph 26.5 mph N/A   Mostly Cloudy
2:53 AM 54.0 °F 30.9 °F 41% 29.98 in 10.0 mi SW 21.9 mph 27.6 mph N/A   Clear
3:53 AM 52.0 °F 33.1 °F 49% 29.98 in 10.0 mi SW 13.8 mph - N/A   Clear
4:53 AM 52.0 °F 33.1 °F 49% 30.00 in 10.0 mi SW 13.8 mph - N/A   Mostly Cloudy
5:53 AM 50.0 °F 34.0 °F 54% 30.02 in 10.0 mi SW 13.8 mph - N/A   Clear
6:53 AM 50.0 °F 35.1 °F 57% 30.02 in 10.0 mi SW 11.5 mph - N/A   Clear
7:53 AM 48.9 °F 36.0 °F 61% 30.03 in 10.0 mi SW 12.7 mph - N/A   Mostly Cloudy
8:53 AM 51.1 °F 39.0 °F 63% 30.03 in 10.0 mi SW 11.5 mph - N/A   Mostly Cloudy
9:53 AM 52.0 °F 41.0 °F 66% 30.05 in 10.0 mi SW 10.4 mph - N/A   Mostly Cloudy
10:53 AM 55.0 °F 44.1 °F 67% 30.06 in 10.0 mi WSW 11.5 mph - N/A   Clear
11:53 AM 55.9 °F 45.0 °F 67% 30.08 in 10.0 mi West 12.7 mph - N/A   Clear
12:53 PM 55.0 °F 46.0 °F 72% 30.09 in 10.0 mi West 13.8 mph - N/A   Partly Cloudy
1:53 PM 55.9 °F 46.0 °F 69% 30.09 in 10.0 mi WSW 11.5 mph - N/A   Clear
2:53 PM 57.0 °F 44.1 °F 62% 30.07 in 10.0 mi West 12.7 mph - N/A   Partly Cloudy
3:53 PM 57.0 °F 41.0 °F 55% 30.07 in 10.0 mi West 11.5 mph - N/A   Clear
4:53 PM 57.0 °F 41.0 °F 55% 30.06 in 10.0 mi West 10.4 mph - N/A   Clear
5:53 PM 57.0 °F 41.0 °F 55% 30.06 in 10.0 mi West 12.7 mph - N/A   Clear
6:53 PM 55.0 °F 43.0 °F 64% 30.07 in 10.0 mi WNW 9.2 mph - N/A   Clear
7:53 PM 55.0 °F 42.1 °F 62% 30.07 in 10.0 mi WNW 6.9 mph - N/A   Clear
8:53 PM 55.0 °F 41.0 °F 59% 30.08 in 10.0 mi WNW 6.9 mph - N/A   Clear
9:53 PM 55.0 °F 41.0 °F 59% 30.08 in 10.0 mi West 6.9 mph - N/A   Clear
10:53 PM 50.0 °F 42.1 °F 74% 30.09 in 10.0 mi SSE 8.1 mph - N/A   Clear
11:53 PM 48.0 °F 42.1 °F 80% 30.09 in 10.0 mi SSE 6.9 mph - N/A   Clear